This is the latest recevied weather packets stored in our database for station/object S54A-10. If no packets are shown the sender has not sent any weather packets the latest 10 day(s).
| Time | Temp. | Humidity | Pressure | Rain* | Wind** | Luminosity | Snow |
|---|---|---|---|---|---|---|---|
| 1777638609 | 19.44° C | 35% | 1027.5 hPa | - | - | - | - |
| 1777637709 | 19.44° C | 35% | 1027.6 hPa | - | - | - | - |
| 1777636809 | 18.89° C | 35% | 1027.8 hPa | - | - | - | - |
| 1777635908 | 18.33° C | 37% | 1027.8 hPa | - | - | - | - |
| 1777635008 | 17.22° C | 37% | 1028 hPa | - | - | - | - |
| 1777634108 | 17.22° C | 38% | 1028.3 hPa | - | - | - | - |
| 1777633208 | 17.22° C | 38% | 1028.4 hPa | - | - | - | - |
| 1777632308 | 16.67° C | 39% | 1028.6 hPa | - | - | - | - |
| 1777631408 | 16.11° C | 41% | 1028.8 hPa | - | - | - | - |
| 1777630508 | 15.56° C | 40% | 1029 hPa | - | - | - | - |
| 1777629608 | 15° C | 42% | 1029 hPa | - | - | - | - |
| 1777628708 | 14.44° C | 42% | 1029.3 hPa | - | - | - | - |
| 1777627808 | 13.89° C | 43% | 1029.3 hPa | - | - | - | - |
| 1777626908 | 13.33° C | 43% | 1029.5 hPa | - | - | - | - |
| 1777626008 | 12.78° C | 44% | 1029.6 hPa | - | - | - | - |
| 1777625108 | 12.22° C | 45% | 1029.7 hPa | - | - | - | - |
| 1777624207 | 11.11° C | 48% | 1029.9 hPa | - | - | - | - |
| 1777623307 | 10.56° C | 49% | 1030 hPa | - | - | - | - |
| 1777622407 | 10° C | 50% | 1030 hPa | - | - | - | - |
| 1777621507 | 9.44° C | 52% | 1030.1 hPa | - | - | - | - |
| 1777620607 | 8.89° C | 53% | 1030.2 hPa | - | - | - | - |
| 1777619707 | 8.33° C | 55% | 1030.2 hPa | - | - | - | - |
| 1777618807 | 7.78° C | 55% | 1030.2 hPa | - | - | - | - |
| 1777617907 | 7.78° C | 56% | 1030.1 hPa | - | - | - | - |
| 1777617007 | 7.22° C | 57% | 1030.1 hPa | - | - | - | - |
* Rain since midnight (hover to see other rain measurements)
** Current wind speed in m/s (hover to see current wind gust speed)